GW4922 Weather Reports


time (UTC)temp
C
wind
direction
speed
KPH
gust
KPH
rain 1hr
cm
rain 24hr
cm
rain mn
cm
humidity
%
barometer
mb
20260504150940 23 136 12.9 20.9 0.00 0.00 0.00 70 1016.1
20260504150437 23 157 9.7 20.9 0.00 0.00 0.00 70 1015.9
20260504140903 21 136 6.4 11.3 0.00 0.00 0.00 79 1016.0
20260504140359 21 149 6.4 9.7 0.00 0.00 0.00 79 1016.2
20260504130325 16 158 0.0 0.0 0.00 0.00 0.00 95 1015.9
20260504120248 12 157 0.0 0.0 0.00 0.00 0.00 95 1015.9
20260504110716 12 157 0.0 0.0 0.00 0.00 0.00 94 1015.5
20260504110212 12 157 0.0 0.0 0.00 0.00 0.00 94 1015.6
20260504100130 -17 0.0 0.0 0.00 0.00 0.00 1016.2
20260504081523 12 157 0.0 0.0 0.00 0.00 0.00 92 1016.9
20260504081019 12 157 0.0 0.0 0.00 0.00 0.00 92 1017.0
20260504080515 12 157 0.0 0.0 0.00 0.00 0.00 92 1017.0
20260504050328 15 158 0.0 0.0 0.00 0.00 0.00 85 1019.0
20260504045825 15 158 0.0 0.0 0.00 0.00 0.00 85 1018.9
20260504045320 15 158 0.0 0.0 0.00 0.00 0.00 85 1018.8
20260504044817 15 158 0.0 0.0 0.00 0.00 0.00 84 1019.0
20260504044315 15 157 0.0 0.0 0.00 0.00 0.00 85 1018.9
20260504043812 15 167 0.0 0.0 0.00 0.00 0.00 85 1018.8
20260504043308 15 167 0.0 0.0 0.00 0.00 0.00 85 1019.0
20260504042806 15 168 0.0 0.0 0.00 0.00 0.00 85 1019.3
20260504042304 15 168 0.0 0.0 0.00 0.00 0.00 85 1019.1
20260504041759 15 167 0.0 0.0 0.00 0.00 0.00 86 1019.1
20260504041255 15 170 0.0 0.0 0.00 0.00 0.00 86 1019.0
20260504040751 15 172 0.0 0.0 0.00 0.00 0.00 86 1019.1
20260504040249 15 148 0.0 0.0 0.00 0.00 0.00 86 1018.9
20260504035744 15 148 0.0 0.0 0.00 0.00 0.00 86 1018.8
20260504035242 15 147 0.0 0.0 0.00 0.00 0.00 85 1018.8
20260504034739 15 147 0.0 0.0 0.00 0.00 0.00 85 1019.0
20260504034236 15 147 0.0 1.6 0.00 0.00 0.00 84 1018.8
20260504033734 15 148 0.0 0.0 0.00 0.00 0.00 84 1018.9
20260504033231 15 148 0.0 0.0 0.00 0.00 0.00 84 1018.9
20260504032728 15 148 0.0 0.0 0.00 0.00 0.00 85 1019.0
20260504032225 15 147 1.6 1.6 0.00 0.00 0.00 86 1018.9
20260504031722 15 147 1.6 1.6 0.00 0.00 0.00 86 1018.9
20260504031219 15 147 0.0 1.6 0.00 0.00 0.00 86 1018.8
20260504030715 15 147 0.0 0.0 0.00 0.00 0.00 85 1018.8
20260504030213 15 147 0.0 0.0 0.00 0.00 0.00 85 1018.9
20260504025709 15 147 0.0 0.0 0.00 0.00 0.00 85 1018.9
20260504025206 15 147 3.2 3.2 0.00 0.00 0.00 85 1019.0
20260504024703 15 147 0.0 0.0 0.00 0.00 0.00 85 1018.8
20260504024159 15 147 0.0 1.6 0.00 0.00 0.00 84 1018.8
20260504023656 16 147 0.0 1.6 0.00 0.00 0.00 84 1018.8
20260504023152 16 147 1.6 1.6 0.00 0.00 0.00 83 1018.7
20260504022648 16 147 0.0 1.6 0.00 0.00 0.00 82 1018.8
20260504022144 16 149 0.0 1.6 0.00 0.00 0.00 82 1018.9
20260504021642 16 149 0.0 1.6 0.00 0.00 0.00 81 1018.6
20260504021139 16 140 1.6 3.2 0.00 0.00 0.00 81 1018.5
20260504020636 16 151 1.6 3.2 0.00 0.00 0.00 80 1018.6
20260504020132 16 151 0.0 0.0 0.00 0.00 0.00 79 1018.6
20260504015629 17 151 1.6 1.6 0.00 0.00 0.00 78 1018.5
20260504015125 17 150 1.6 3.2 0.00 0.00 0.00 77 1018.4
20260504014621 17 154 3.2 4.8 0.00 0.00 0.00 77 1018.6
20260504014118 17 153 3.2 4.8 0.00 0.00 0.00 78 1018.7
20260504013616 17 153 3.2 3.2 0.00 0.00 0.00 77 1018.4
20260504013112 17 147 3.2 3.2 0.00 0.00 0.00 75 1018.5
20260504012610 18 149 3.2 4.8 0.00 0.00 0.00 74 1018.6
20260504012108 18 156 3.2 6.4 0.00 0.00 0.00 74 1018.7
20260504011604 18 151 3.2 4.8 0.00 0.00 0.00 73 1018.8
20260504011100 18 151 1.6 3.2 0.00 0.00 0.00 72 1018.4
20260504010556 18 152 1.6 3.2 0.00 0.00 0.00 71 1018.5
20260504010052 19 154 3.2 3.2 0.00 0.00 0.00 70 1018.5
20260504005549 20 147 3.2 4.8 0.00 0.00 0.00 68 1018.3
20260504005047 20 150 3.2 3.2 0.00 0.00 0.00 67 1018.1
20260504004544 20 153 4.8 6.4 0.00 0.00 0.00 64 1018.3
20260504004041 21 154 6.4 6.4 0.00 0.00 0.00 62 1018.5
20260504003537 21 154 3.2 6.4 0.00 0.00 0.00 60 1018.6
20260504003034 22 133 3.2 4.8 0.00 0.00 0.00 59 1018.4
20260504002531 22 149 6.4 6.4 0.00 0.00 0.00 56 1018.4
20260504002029 22 107 6.4 9.7 0.00 0.00 0.00 52 1018.2
20260504001526 22 130 4.8 9.7 0.00 0.00 0.00 52 1018.3
20260504001022 22 141 4.8 9.7 0.00 0.00 0.00 54 1018.3
20260504000519 22 147 6.4 11.3 0.00 0.00 0.00 52 1018.2
20260504000017 22 152 12.9 16.1 0.00 0.00 0.00 51 1018.3
20260503235515 22 103 8.0 16.1 0.00 0.00 0.00 52 1018.4
20260503235011 23 142 14.5 16.1 0.00 0.00 0.00 49 1018.3
20260503234509 23 143 9.7 11.3 0.00 0.00 0.00 51 1018.4
20260503234008 23 139 11.3 17.7 0.00 0.00 0.00 49 1018.5
20260503233503 23 135 9.7 12.9 0.00 0.00 0.00 50 1018.4
20260503232959 23 144 8.0 14.5 0.00 0.00 0.00 49 1018.6
20260503232456 23 137 9.7 14.5 0.00 0.00 0.00 48 1018.4
20260503231954 24 123 11.3 14.5 0.00 0.00 0.00 45 1018.9
20260503231451 24 158 11.3 12.9 0.00 0.00 0.00 47 1018.8
20260503230948 24 128 4.8 12.9 0.00 0.00 0.00 45 1018.8
20260503230444 24 143 8.0 16.1 0.00 0.00 0.00 45 1018.9
20260503225942 24 137 9.7 12.9 0.00 0.00 0.00 46 1018.8
20260503225439 24 141 9.7 12.9 0.00 0.00 0.00 48 1018.7
20260503224934 25 162 9.7 14.5 0.00 0.00 0.00 44 1018.7
20260503224432 25 152 9.7 17.7 0.00 0.00 0.00 45 1018.7
20260503223929 25 162 6.4 12.9 0.00 0.00 0.00 47 1018.9
20260503223427 25 147 6.4 12.9 0.00 0.00 0.00 46 1019.3
20260503222922 25 134 17.7 17.7 0.00 0.00 0.00 42 1019.2
20260503222421 25 127 14.5 22.5 0.00 0.00 0.00 43 1019.0
20260503221919 25 114 9.7 16.1 0.00 0.00 0.00 44 1018.9
20260503221417 25 122 9.7 12.9 0.00 0.00 0.00 40 1019.1
20260503220913 25 127 6.4 17.7 0.00 0.00 0.00 43 1019.3
20260503220410 25 134 6.4 12.9 0.00 0.00 0.00 42 1019.4
20260503215907 25 136 9.7 17.7 0.00 0.00 0.00 45 1019.4
20260503215404 24 157 14.5 16.1 0.00 0.00 0.00 45 1019.3
20260503214902 25 129 11.3 16.1 0.00 0.00 0.00 43 1019.4
20260503214359 25 145 6.4 16.1 0.00 0.00 0.00 42 1019.6
20260503213856 25 141 9.7 14.5 0.00 0.00 0.00 45 1019.6
20260503213354 25 160 4.8 16.1 0.00 0.00 0.00 43 1019.5
20260503212850 25 119 9.7 12.9 0.00 0.00 0.00 45 1019.7
20260503212348 25 125 14.5 17.7 0.00 0.00 0.00 45 1019.4
20260503211845 25 118 4.8 6.4 0.00 0.00 0.00 47 1019.6
20260503211342 25 141 4.8 14.5 0.00 0.00 0.00 42 1019.7
20260503210837 25 156 9.7 12.9 0.00 0.00 0.00 43 1020.0
20260503210335 25 151 9.7 14.5 0.00 0.00 0.00 41 1019.9
20260503205829 25 144 9.7 14.5 0.00 0.00 0.00 44 1020.0
20260503205326 25 130 9.7 16.1 0.00 0.00 0.00 45 1020.2
20260503204823 25 138 8.0 14.5 0.00 0.00 0.00 42 1020.0
20260503204320 26 138 4.8 14.5 0.00 0.00 0.00 41 1020.1
20260503203817 26 134 4.8 11.3 0.00 0.00 0.00 39 1020.1
20260503203315 26 135 6.4 14.5 0.00 0.00 0.00 37 1020.4
20260503202812 26 135 4.8 11.3 0.00 0.00 0.00 41 1020.1
20260503202310 26 134 4.8 4.8 0.00 0.00 0.00 42 1020.4
20260503201808 26 135 0.0 4.8 0.00 0.00 0.00 40 1020.4
20260503201304 25 133 4.8 6.4 0.00 0.00 0.00 39 1020.5
20260503200802 25 135 6.4 14.5 0.00 0.00 0.00 42 1020.8
20260503200257 26 134 4.8 14.5 0.00 0.00 0.00 41 1020.8
20260503195755 25 137 1.6 11.3 0.00 0.00 0.00 41 1020.8
20260503195251 26 136 6.4 14.5 0.00 0.00 0.00 45 1020.9
20260503194749 26 135 6.4 9.7 0.00 0.00 0.00 41 1020.6
20260503194244 25 135 3.2 4.8 0.00 0.00 0.00 42 1020.9
20260503193741 25 135 9.7 11.3 0.00 0.00 0.00 42 1021.0
20260503193237 25 135 6.4 9.7 0.00 0.00 0.00 42 1021.1
20260503192732 26 135 3.2 6.4 0.00 0.00 0.00 39 1021.2
20260503192228 26 136 1.6 4.8 0.00 0.00 0.00 42 1021.3
20260503191725 25 136 3.2 12.9 0.00 0.00 0.00 43 1021.3
20260503191222 25 135 3.2 16.1 0.00 0.00 0.00 40 1021.3
20260503190719 25 137 9.7 12.9 0.00 0.00 0.00 44 1021.4
20260503190216 25 136 4.8 6.4 0.00 0.00 0.00 43 1021.6
20260503185713 25 135 14.5 17.7 0.00 0.00 0.00 41 1021.6
20260503185208 25 135 6.4 9.7 0.00 0.00 0.00 43 1021.5
20260503184703 25 135 6.4 11.3 0.00 0.00 0.00 41 1021.8
20260503184200 25 135 8.0 14.5 0.00 0.00 0.00 38 1022.0
20260503183656 25 135 8.0 11.3 0.00 0.00 0.00 39 1022.0
20260503183154 25 135 8.0 11.3 0.00 0.00 0.00 37 1022.0
20260503182652 25 135 8.0 16.1 0.00 0.00 0.00 39 1022.1
20260503182150 25 136 6.4 11.3 0.00 0.00 0.00 41 1022.3
20260503181646 25 135 3.2 11.3 0.00 0.00 0.00 41 1022.2
20260503181143 25 135 3.2 9.7 0.00 0.00 0.00 41 1022.3
20260503180640 25 136 6.4 11.3 0.00 0.00 0.00 44 1022.4
20260503180138 25 136 1.6 6.4 0.00 0.00 0.00 39 1022.7
20260503175635 25 136 6.4 11.3 0.00 0.00 0.00 39 1022.7
20260503175132 25 137 6.4 12.9 0.00 0.00 0.00 39 1022.7
20260503174628 25 137 3.2 4.8 0.00 0.00 0.00 39 1022.6
20260503174126 25 137 6.4 9.7 0.00 0.00 0.00 39 1022.9
20260503173620 25 139 11.3 14.5 0.00 0.00 0.00 41 1022.9
20260503173117 25 134 4.8 17.7 0.00 0.00 0.00 38 1023.2
20260503172614 25 139 4.8 6.4 0.00 0.00 0.00 36 1023.3
20260503172112 25 139 1.6 12.9 0.00 0.00 0.00 38 1023.2
20260503171608 25 139 4.8 11.3 0.00 0.00 0.00 39 1023.3
20260503171105 25 139 6.4 9.7 0.00 0.00 0.00 40 1023.2
20260503170602 25 139 1.6 3.2 0.00 0.00 0.00 39 1023.4